This is the latest recevied weather packets stored in our database for station/object OK2ZI. If no packets are shown the sender has not sent any weather packets the latest 10 day(s).
| Time | Temp. | Humidity | Pressure | Rain* | Wind** | Luminosity | Snow |
|---|---|---|---|---|---|---|---|
| 1777970168 | 18.33° C | 48% | 1006 hPa | 0 mm | - | - | - |
| 1777969815 | 18.89° C | 48% | 1007 hPa | 0 mm | - | - | - |
| 1777969094 | 18.89° C | 46% | 1007 hPa | 0 mm | - | - | - |
| 1777968727 | 18.33° C | 47% | 1007 hPa | 0 mm | - | - | - |
| 1777968136 | 17.22° C | 50% | 1007 hPa | 0 mm | - | - | - |
| 1777968024 | 17.22° C | 49% | 1007 hPa | 0 mm | - | - | - |
| 1777967766 | 16.67° C | 50% | 1007 hPa | 0 mm | - | - | - |
| 1777967287 | 16.67° C | 50% | 1007 hPa | 0 mm | - | - | - |
| 1777967167 | 16.67° C | 50% | 1007 hPa | 0 mm | - | - | - |
| 1777966579 | 16.67° C | 49% | 1007 hPa | 0 mm | - | - | - |
| 1777966327 | 17.22° C | 48% | 1007 hPa | 0 mm | - | - | - |
| 1777965487 | 17.78° C | 46% | 1006 hPa | 0 mm | - | - | - |
| 1777964167 | 17.22° C | 47% | 1007 hPa | 0 mm | - | - | - |
| 1777963927 | 17.22° C | 47% | 1007 hPa | 0 mm | - | - | - |
| 1777963812 | 16.67° C | 47% | 1007 hPa | 0 mm | - | - | - |
| 1777963447 | 16.11° C | 48% | 1007 hPa | 0 mm | - | - | - |
| 1777962616 | 16.11° C | 48% | 1007 hPa | 0 mm | - | - | - |
| 1777961527 | 15.56° C | 48% | 1007 hPa | 0 mm | - | - | - |
| 1777961167 | 16.11° C | 47% | 1007 hPa | 0 mm | - | - | - |
| 1777960567 | 15.56° C | 50% | 1007 hPa | 0 mm | - | - | - |
| 1777960327 | 15.56° C | 49% | 1007 hPa | 0 mm | - | - | - |
| 1777958287 | 14.44° C | 50% | 1007 hPa | 0 mm | - | - | - |
| 1777958047 | 14.44° C | 51% | 1007 hPa | 0 mm | - | - | - |
| 1777957221 | 12.22° C | 57% | 1007 hPa | 0 mm | - | - | - |
| 1777957087 | 11.67° C | 58% | 1007 hPa | 0 mm | - | - | - |
* Rain latest hour (hover to see other rain measurements)
** Current wind speed in m/s (hover to see current wind gust speed)